Flag for U.S.A. Weather past 2 weeks in Monticello, Kentucky, U.S.A.

Now
49 °F

Overcast.


Feels Like: 47 °F
Forecast: 34 / 63 °F
Wind: 5 mph from Northeast

Location: London-Corbin Airport-Magee Field

Current Time: Oct 23, 2014 at 2:21:09 AM

Latest Report: Oct 23, 2014 at 1:53 AM


Visibility: 10 mi

Pressure: 30.23 "Hg

Humidity: 77%

Dew point: 42 °F

Location of MonticelloLocation

Historic Weather in Monticello — Graph

°F

Monticello temperature yesterday

Maximum temperature yesterday: 50 °F (at 12:53 AM)
Minimum temperature yesterday: 42 °F (at 6:53 AM)
Average temperature yesterday: 48 °F

Past Weeks' High & Low Weather Summary

 TemperatureHumidityPressure
High79 °F (Oct 13, 2:53 PM)100% (Oct 17, 4:17 AM)30.28 "Hg (Oct 17, 4:17 AM)
Low37 °F (Oct 17, 4:17 AM)32% (Oct 8, 3:53 PM)29.63 "Hg (Oct 14, 12:53 PM)
Average58 °F78%29.99 "Hg
* Reported Oct 8 12:53 AM — Oct 23 12:53 AM, Monticello, Weather by CustomWeather, © 2014

Note: Actual official high and low records may vary slightly from our data, if they occured in-between our weather recording intervals... More about our weather records

Advertising

Monticello weather history for previous 24 hours

 ConditionsComfort  
Time TempWeatherWind HumidityBarometerVisibility
12:53 AM
Oct 23
49 °FOvercast.No wind77%30.22 "Hg10 mi
12:01 AM49 °FOvercast.5 mph74%30.23 "Hg10 mi
10:53 PM
Oct 22
49 °FOvercast.3 mph77%30.24 "Hg10 mi
9:53 PM49 °FOvercast.5 mph74%30.25 "Hg10 mi
8:53 PM49 °FOvercast.No wind74%30.24 "Hg10 mi
7:53 PM49 °FOvercast.3 mph71%30.25 "Hg10 mi
6:53 PM50 °FOvercast.3 mph68%30.25 "Hg10 mi
5:53 PM50 °FOvercast.3 mph68%30.24 "Hg10 mi
4:53 PM50 °FOvercast.3 mph68%30.25 "Hg10 mi
3:53 PM49 °FOvercast.3 mph71%30.25 "Hg10 mi
2:53 PM49 °FOvercast.9 mph71%30.26 "Hg10 mi
1:53 PM49 °FOvercast.7 mph71%30.26 "Hg10 mi
12:53 PM49 °FOvercast.7 mph71%30.28 "Hg10 mi
11:53 AM48 °FOvercast.7 mph71%30.27 "Hg10 mi
10:53 AM47 °FOvercast.10 mph74%30.26 "Hg10 mi
9:53 AM47 °FPartly sunny.8 mph74%30.25 "Hg10 mi
8:53 AM44 °FPartly sunny.5 mph82%30.23 "Hg10 mi
7:53 AM42 °FPassing clouds.3 mph82%30.22 "Hg10 mi
6:53 AM42 °FPassing clouds.3 mph85%30.19 "Hg10 mi
5:53 AM43 °FClear.No wind76%30.17 "Hg10 mi
4:53 AM45 °FClear.6 mph74%30.15 "Hg10 mi
3:53 AM48 °FMostly cloudy.7 mph77%30.13 "Hg10 mi
2:53 AM49 °FOvercast.5 mph77%30.12 "Hg10 mi
Weather by CustomWeather, © 2014

See weather overviewHow to use our weather pages